User: anonymous   Login
Location: Colle Santa Colomba
(42.0333°N, 12.5667°E)
Time: 17:46:34
(UTC+00:00)
Language:

IRIDIUM 33 DEB - Orbit

View from above orbital plane
View from above orbital plane
View from above satellite
View from above satellite

Ground track
Ground track

The orbit data is extracted from the following two-line orbital elements,

1 34526U 97051HT  22222.17468057  .00037166  00000-0  31496-2 0  9998
2 34526  86.3312 125.5849 0015767  41.6020 318.6407 14.97712214714658
Epoch (UTC): 10 August 2022 04:11:32
Eccentricity: 0.0015767
inclination: 86.3312°
perigee height: 563 km
apogee height: 585 km
right ascension of ascending node: 125.5849°
argument of perigee: 41.6020°
revolutions per day: 14.97712214
mean anomaly at epoch: 318.6407°
orbit number at epoch: 71465

The dashed part of the orbit path shows where the satellite is in the earth's shadow,  

DLR